Dewpoint
-4 -3 2 7 9 7 7 7 3 1 -2 -6 -4 -3 0 3 2 4 5 -0 4 8 9 9 6 9 9 9 9 8 8 8 8 8 8 8 8 8 8 8 8 7 7 7 8 9 9 8 8
-5 -4 4 7 6 5 5 4 3 1 -2 -1 -0 0 0 1 8 7 4 -4 6 8 8 8 8 9 9 9 9 9 9 8 8 8 9 8 8 8 8 8 8 7 7 6 6 8 8 8 7
-5 0 5 4 4 3 4 5 2 -3 -1 -4 -5 -2 -1 1 7 7 3 -7 7 7 7 8 9 8 8 9 8 9 8 8 8 8 8 8 8 8 7 7 6 7 5 3 5 6 7 7 6
0 5 5 4 3 5 5 3 -2 -2 -1 -2 -5 -7 -1 4 5 6 -4 -8 6 7 6 5 9 7 8 6 8 8 8 9 8 8 8 4 8 8 6 5 -3 -13 -10 -9 -6 -0 -1 3 4
1 5 2 3 3 5 3 1 -3 -3 -4 -6 -5 -6 -3 4 -4 1 -5 -4 5 5 6 9 9 7 8 8 9 8 8 7 3 -2 -12 -1 -2 -7 -18 -20 -19 -20 -21 -20 -18 -13 -10 -12 -11
2 5 1 1 3 4 1 -1 -4 -5 -6 -5 -4 -5 -2 2 -4 -0 -2 3 5 4 5 9 7 6 4 8 7 7 5 1 -15 -21 -22 -22 -22 -24 -23 -24 -24 -24 -25 -23 -22 -22 -23 -24 -22
1 2 -0 3 3 4 1 -3 -5 -4 -6 -5 -5 -8 -2 4 4 -2 3 6 5 3 0 7 8 6 2 8 6 4 7 -4 -18 -23 -23 -23 -23 -23 -23 -24 -25 -25 -25 -26 -24 -25 -25 -24 -24
5 4 4 3 4 2 -1 -3 -4 -5 -5 -7 -4 -8 -6 1 -5 -2 5 6 5 4 -0 5 7 8 8 6 -0 -0 -10 -7 -21 -25 -24 -23 -22 -22 -23 -23 -24 -25 -26 -26 -26 -24 -24 -24 -22
6 3 2 3 5 4 -1 -2 -4 -4 -4 -4 -3 -4 -5 -1 -7 1 5 5 5 4 2 5 5 7 7 7 2 -17 -21 -26 -26 -25 -24 -20 -12 -19 -21 -24 -24 -26 -26 -25 -25 -24 -25 -23 -23
4 3 1 3 3 3 1 -1 -2 -4 -4 -4 -3 -3 -6 -5 -5 4 4 4 4 3 2 5 4 4 5 -0 -2 2 -1 -3 -8 -13 -17 -15 -21 -22 -23 -24 -24 -24 -24 -24 -23 -23 -22 -22 -21
4 3 1 3 3 2 1 -1 -2 -3 -1 -2 -2 -2 -4 -3 3 4 3 3 3 3 1 -1 -4 -2 -3 -1 -1 -7 -16 -21 -21 -22 -22 -23 -23 -24 -24 -23 -22 -21 -21 -19 -20 -19 -20 -20 -19
3 2 3 3 2 2 0 -1 -1 -2 -1 -1 -2 -3 -3 -2 3 3 3 2 3 4 -1 -5 -6 -8 -4 -2 -5 -7 -13 -19 -20 -22 -22 -22 -23 -24 -24 -23 -21 -20 -19 -17 -17 -16 -15 -15 -14
-5 -4 -2 0 1 1 -0 -0 -0 -1 -1 -2 -2 -3 -3 -1 1 2 2 2 2 3 -3 -7 -9 -9 -8 -6 -4 -7 -12 -16 -17 -19 -20 -21 -21 -21 -20 -21 -20 -18 -15 -14 -13 -12 -11 -10 -9
-5 -6 -6 -6 -6 -2 -2 -2 -3 -3 -3 -3 -2 -2 -1 -1 -2 2 2 2 2 2 -2 -6 -8 -10 -10 -10 -10 -10 -11 -13 -15 -15 -17 -19 -19 -18 -17 -17 -16 -14 -13 -12 -11 -10 -9 -9 -9
-5 -5 -7 -7 -7 -7 -5 -5 -4 -4 -4 -5 -5 -3 -2 -1 0 0 -6 -3 -0 -0 1 -3 -9 -9 -11 -11 -10 -10 -11 -12 -15 -15 -16 -17 -17 -16 -15 -14 -13 -11 -11 -10 -10 -9 -9 -8 -8
-5 -6 -5 -8 -6 -7 -6 -6 -8 -7 -8 -8 -8 -7 -3 -1 0 -2 -2 -5 0 1 -0 -3 -9 -9 -11 -11 -11 -11 -11 -12 -13 -14 -16 -16 -16 -16 -14 -13 -11 -10 -10 -9 -8 -8 -8 -7 -7
-5 -2 -3 -5 -6 -5 -5 -6 -9 -6 -7 -8 -8 -8 -6 -3 -1 -0 -0 -3 -2 -5 -5 -7 -10 -9 -10 -9 -9 -10 -11 -11 -13 -13 -15 -17 -17 -16 -14 -12 -11 -10 -9 -8 -8 -7 -7 -7 -7
-4 -4 -4 -4 -7 -6 -6 -6 -8 -9 -7 -8 -9 -8 -8 -7 -5 -2 -6 -5 -5 -5 -6 -8 -10 -10 -8 -7 -6 -7 -8 -11 -13 -15 -17 -18 -18 -16 -14 -12 -10 -9 -8 -8 -7 -7 -7 -7 -7
-5 -4 -4 -6 -7 -6 -6 -7 -8 -10 -9 -6 -7 -8 -8 -8 -7 -5 -6 -6 -5 -4 -5 -6 -8 -9 -7 -5 -4 -5 -8 -10 -13 -17 -18 -18 -17 -15 -13 -11 -10 -9 -8 -7 -7 -7 -6 -6 -6
-4 -4 -5 -7 -7 -7 -8 -7 -10 -11 -10 -9 -7 -9 -9 -9 -8 -6 -4 -8 -6 -5 -5 -5 -6 -8 -8 -7 -6 -5 -6 -8 -11 -14 -17 -18 -18 -15 -13 -11 -9 -8 -8 -7 -7 -6 -6 -5 -5
-5 -5 -7 -6 -6 -7 -7 -11 -12 -13 -12 -10 -9 -9 -9 -9 -8 -7 -6 -11 -8 -7 -6 -5 -5 -7 -8 -8 -5 -5 -4 -7 -7 -11 -16 -19 -18 -15 -13 -11 -9 -8 -8 -7 -7 -6 -5 -4 -4
-6 -7 -6 -4 -5 -7 -7 -11 -14 -11 -8 -7 -7 -9 -11 -8 -8 -8 -7 -9 -13 -10 -6 -6 -6 -7 -8 -8 -5 -5 -6 -8 -11 -12 -15 -16 -16 -15 -13 -10 -9 -8 -8 -8 -6 -5 -4 -4 -3
-6 -5 -4 -4 -4 -4 -6 -6 -15 -10 -7 -6 -6 -5 -6 -7 -8 -8 -7 -6 -11 -12 -10 -8 -7 -7 -8 -8 -7 -7 -6 -8 -8 -10 -12 -13 -16 -14 -12 -10 -9 -9 -8 -7 -5 -4 -3 -3 -3
-6 -5 -5 -2 -3 -5 -6 -5 -9 -6 -5 -7 -8 -8 -7 -7 -7 -9 -8 -7 -10 -12 -13 -11 -8 -8 -8 -8 -8 -8 -8 -8 -8 -10 -10 -13 -15 -14 -11 -10 -10 -9 -8 -5 -4 -2 -2 -2 -2
-5 -5 -7 -8 -5 -7 -3 -3 -4 -7 -8 -8 -8 -8 -8 -8 -7 -7 -9 -10 -12 -11 -13 -12 -9 -9 -8 -8 -8 -8 -9 -8 -8 -10 -11 -13 -15 -13 -11 -10 -10 -9 -7 -4 -2 -1 -1 -1 -2
-5 -5 -8 -8 -10 -7 -2 -5 -4 -8 -9 -8 -8 -8 -7 -7 -7 -6 -10 -10 -10 -12 -11 -12 -14 -11 -9 -9 -9 -9 -8 -8 -9 -10 -12 -13 -14 -13 -11 -11 -11 -9 -5 -2 -1 -1 -1 -2 -2
-5 -5 -7 -6 -4 -4 -8 -9 -7 -7 -8 -7 -8 -8 -8 -7 -7 -7 -9 -10 -11 -12 -11 -9 -11 -12 -10 -10 -10 -9 -9 -8 -10 -11 -12 -14 -14 -13 -12 -12 -11 -8 -4 -1 -0 -1 -2 -2 -3
-6 -6 -3 -4 -4 -7 -11 -9 -7 -5 -6 -5 -7 -8 -8 -7 -7 -7 -7 -9 -10 -12 -12 -12 -9 -10 -11 -10 -9 -9 -10 -10 -10 -10 -12 -15 -14 -13 -13 -12 -11 -9 -4 -1 -1 -1 -2 -3 -3
-4 -4 -4 -4 -5 -5 -7 -10 -10 -4 -3 -6 -8 -8 -7 -7 -7 -7 -7 -6 -9 -10 -11 -11 -11 -10 -9 -10 -9 -9 -9 -10 -10 -10 -12 -14 -13 -13 -13 -12 -12 -9 -4 -0 -1 -2 -2 -3 -3
-5 -5 -5 -4 -2 -3 -2 -4 -11 -9 -8 -8 -8 -7 -7 -7 -7 -7 -6 -6 -6 -7 -10 -10 -10 -10 -10 -10 -10 -9 -8 -8 -9 -11 -12 -13 -13 -13 -13 -12 -12 -10 -5 -0 -1 -2 -2 -2 -2
Wind_Speed
10 8 7 4 5 4 2 2 0 2 3 2 3 4 2 3 4 3 6 12 13 15 14 13 14 15 11 10 9 10 9 10 10 9 10 9 9 10 11 12 12 13 14 14 16 16 15 16 15
8 5 4 2 5 6 3 3 3 2 4 7 4 3 4 2 2 3 9 11 16 15 13 13 16 13 11 10 10 9 11 9 10 11 9 10 10 10 11 10 13 11 13 15 15 14 17 13 14
5 2 4 3 4 7 1 2 4 5 9 4 3 3 1 1 3 6 6 14 17 14 13 14 15 14 12 13 10 10 9 7 9 8 9 9 10 9 10 10 10 12 12 14 13 12 12 13 13
2 2 2 6 7 2 1 3 6 9 6 3 2 3 1 3 4 7 10 15 16 14 14 15 14 11 11 9 9 6 11 10 10 9 8 8 10 9 9 9 10 11 12 13 13 12 12 12 11
2 3 6 7 8 2 2 2 9 7 4 4 5 2 1 3 6 10 13 15 16 15 14 13 14 12 15 9 11 11 7 7 8 7 6 8 7 7 9 10 10 10 11 11 11 11 11 11 11
4 3 6 10 8 4 2 7 8 5 4 5 5 2 2 5 8 13 14 15 14 14 15 12 12 11 12 11 11 8 9 7 5 6 6 6 7 8 8 8 9 9 9 9 9 9 9 10 10
5 5 7 4 7 5 4 9 9 7 6 5 2 2 3 8 11 13 15 16 15 14 14 12 12 11 11 12 9 11 9 5 5 5 5 5 5 6 6 7 8 7 8 8 8 8 9 9 10
3 4 6 6 7 7 6 9 3 8 4 4 5 2 3 11 14 15 17 17 16 15 14 13 13 11 10 9 11 8 8 7 5 4 4 5 5 4 5 5 5 6 7 7 7 8 9 9 8
3 5 6 6 7 2 6 8 5 3 5 6 7 2 4 9 16 17 18 18 17 17 16 14 13 13 12 11 9 8 7 7 5 5 5 5 3 2 4 4 4 5 5 5 4 6 6 7 8
5 5 5 2 3 3 3 9 5 6 9 9 8 10 9 10 16 19 21 22 21 20 19 16 15 14 13 12 10 9 8 7 7 6 5 5 3 2 2 2 3 3 2 3 4 5 6 7 6
2 6 4 5 7 5 4 7 7 9 8 11 11 13 14 14 18 20 20 21 22 20 19 19 17 16 15 13 12 10 9 9 8 8 7 6 5 3 2 1 1 0 2 3 3 4 4 3 4
6 6 7 3 3 3 5 2 7 15 16 5 9 9 14 17 20 21 22 22 22 22 21 20 18 16 15 14 13 11 10 10 9 9 8 7 5 4 4 3 2 1 1 0 2 3 3 4 5
7 5 3 6 7 8 5 11 12 13 18 15 14 13 17 18 18 19 20 20 22 23 23 22 20 18 17 16 14 14 13 12 11 10 9 7 7 6 5 4 3 2 1 1 2 3 4 4 5
2 8 10 8 10 8 8 15 5 17 15 19 18 19 19 21 19 18 22 23 24 24 24 23 22 20 19 18 17 15 14 13 12 10 9 9 9 8 6 5 4 3 2 0 1 2 3 4 4
5 8 10 12 8 7 5 15 17 26 19 22 21 21 21 23 20 23 22 24 24 24 24 25 24 22 21 19 18 17 16 15 13 13 13 12 10 9 7 6 4 4 2 1 1 2 3 5 6
4 4 5 5 3 2 5 16 12 12 15 19 19 21 23 24 24 23 23 23 23 23 26 25 26 25 23 22 20 19 18 17 16 16 15 13 12 10 8 7 6 4 4 3 2 3 4 6 7
4 4 5 5 3 2 8 15 9 4 10 13 15 18 23 22 24 24 24 25 24 24 24 26 27 26 24 23 22 21 20 20 19 19 17 14 13 11 10 9 8 7 6 5 4 4 5 7 7
2 6 4 7 1 7 14 23 22 24 18 22 19 16 19 23 26 25 27 27 27 26 25 25 27 28 26 25 24 24 24 24 22 21 18 17 15 14 13 11 10 9 7 6 5 5 6 7 7
5 6 9 11 5 6 14 21 24 23 22 23 24 22 23 22 19 23 27 30 31 31 30 29 30 29 29 30 29 28 28 25 24 22 19 19 18 16 14 13 12 10 9 8 7 7 7 7 7
5 9 11 9 2 7 15 25 23 12 15 22 22 23 25 24 24 23 26 32 35 34 33 32 32 30 32 32 30 29 26 25 22 22 22 21 20 18 16 15 13 12 10 9 9 8 8 7 6
7 9 11 10 12 7 13 8 7 4 4 3 10 17 19 22 24 24 27 33 36 38 38 36 34 32 32 32 31 30 29 27 25 25 24 24 22 20 18 16 15 13 12 11 10 9 8 7 5
9 0 4 8 10 6 8 5 7 10 10 14 14 9 9 17 20 22 24 31 37 39 37 36 34 33 33 33 35 34 32 30 27 25 24 23 22 22 20 18 17 15 13 12 12 11 10 8 8
2 1 4 4 8 9 2 4 5 7 13 20 20 17 10 6 10 19 24 27 33 35 37 36 35 35 35 35 36 34 33 31 28 26 25 24 24 24 22 20 18 16 15 13 13 13 11 9 9
1 4 4 2 2 4 3 3 8 9 13 15 21 26 21 14 10 9 20 23 30 33 36 37 38 38 37 37 36 36 35 33 32 30 28 28 26 25 23 21 19 17 16 14 14 14 13 11 10
4 7 3 3 2 3 2 4 7 8 10 11 16 21 26 27 24 18 10 24 30 34 35 37 39 39 38 39 37 37 36 35 34 31 31 30 29 28 25 22 20 18 17 16 15 15 14 13 12
1 3 4 4 3 4 3 3 5 3 4 8 14 20 20 28 31 28 21 13 26 32 34 34 36 38 38 38 39 38 37 37 36 34 34 34 32 29 26 25 23 20 19 17 16 16 15 15 13
4 4 2 1 0 4 1 3 2 6 7 0 13 25 28 30 31 27 28 18 14 28 32 34 34 35 37 36 37 39 40 39 39 37 37 37 34 32 30 28 26 23 21 19 19 18 17 16 15
4 4 2 3 2 3 2 4 6 9 4 6 18 28 28 31 35 28 23 21 14 13 24 31 34 35 36 37 38 38 40 40 40 39 40 40 38 36 34 32 29 26 24 22 22 20 19 18 16
4 4 2 2 3 3 4 1 4 6 2 11 19 25 30 32 33 29 24 20 15 10 13 23 30 35 37 38 39 40 40 41 41 42 41 41 40 38 37 35 32 30 27 25 24 23 22 21 19
1 3 6 4 3 1 3 6 4 3 3 16 25 31 32 30 29 27 24 22 18 14 12 13 22 30 33 36 37 41 41 42 43 43 42 42 42 41 39 38 36 34 31 29 28 27 26 24 22
Wind_Direction
308 311 311 312 244 247 230 147 18 155 168 127 140 230 303 340 337 26 162 167 157 153 151 152 153 146 145 154 136 125 114 112 103 113 102 94 95 85 74 79 62 62 65 71 76 65 65 67 69
306 307 297 258 254 241 141 138 194 77 111 132 144 192 227 101 90 116 142 168 156 155 151 157 143 159 151 134 144 137 121 121 123 117 99 100 86 77 72 80 76 64 66 69 74 73 70 66 69
306 271 245 248 250 252 279 159 118 118 143 165 179 226 273 110 159 158 173 166 158 159 156 162 141 180 153 159 153 133 133 130 115 116 100 96 95 80 91 73 74 78 65 69 75 75 71 72 65
295 238 202 238 229 193 295 119 140 144 178 211 230 201 196 183 140 168 176 168 162 162 157 162 169 176 158 158 145 156 151 142 136 123 113 118 111 90 85 82 75 75 76 74 70 69 67 66 65
253 223 225 228 225 217 208 141 167 169 152 170 195 118 189 196 201 176 176 168 166 164 162 160 187 169 159 181 153 154 142 149 154 156 126 112 104 100 87 84 82 78 74 74 73 72 72 71 68
210 251 224 221 206 202 204 172 173 197 168 156 196 214 162 197 176 172 173 171 172 172 167 173 177 177 169 172 165 171 171 169 157 141 122 109 99 92 87 82 81 77 75 76 77 73 73 76 83
251 233 239 242 219 218 187 168 203 192 180 197 179 229 151 182 176 178 173 172 175 177 176 172 175 183 180 173 184 174 170 184 157 131 123 112 99 88 82 82 81 82 81 76 79 74 71 71 72
221 249 213 222 206 217 163 177 209 199 184 179 192 213 142 188 187 176 171 176 179 181 180 180 178 180 181 186 184 182 183 182 165 144 138 118 110 91 89 88 71 78 63 61 53 54 49 51 51
196 235 228 216 214 179 158 201 180 208 183 193 199 208 192 177 188 179 178 183 188 190 188 186 185 183 182 183 198 187 186 178 161 144 132 143 134 106 94 87 75 66 58 56 48 51 44 40 36
243 248 228 253 240 267 198 223 205 199 202 217 214 221 214 195 193 189 190 192 194 196 194 191 189 190 190 192 194 189 195 187 184 177 174 168 167 165 129 88 72 69 76 63 49 44 37 32 22
197 264 244 237 246 262 266 223 212 221 220 228 224 208 212 202 198 199 203 203 202 199 199 197 196 193 195 195 196 197 198 195 193 193 188 189 188 183 156 154 114 93 55 42 31 33 26 19 13
259 252 248 275 232 222 237 218 222 223 239 239 237 208 210 209 208 208 208 205 202 202 205 202 200 200 198 198 199 201 201 202 200 198 196 194 191 197 205 200 197 190 168 93 24 23 12 12 10
248 285 255 259 265 250 246 242 254 241 247 248 249 225 218 216 217 216 213 209 205 206 208 206 206 204 202 202 202 202 204 204 204 202 201 195 201 205 205 205 203 204 206 49 24 17 22 17 15
308 284 278 270 260 251 250 261 241 252 252 241 234 231 221 220 225 213 210 210 208 206 209 208 211 208 206 205 206 206 207 208 207 205 204 203 205 204 206 203 205 204 200 153 18 15 6 13 1
277 288 283 250 252 237 246 256 240 259 248 246 239 234 229 226 218 218 224 217 211 210 208 210 212 212 211 208 209 209 210 211 211 211 210 206 206 206 207 205 210 214 212 226 312 337 341 357 354
254 255 288 119 194 203 210 265 274 263 231 241 239 235 229 226 222 225 220 222 214 210 210 211 214 214 213 212 212 212 215 214 214 216 214 211 210 212 214 216 218 215 222 239 278 310 333 337 339
210 286 272 298 186 254 227 290 281 238 219 239 235 236 230 227 224 222 219 219 216 214 213 214 217 217 216 215 216 216 218 219 217 219 216 214 215 215 217 220 225 227 233 242 262 294 317 319 332
289 280 264 277 189 243 271 268 272 263 248 255 247 240 228 226 227 224 223 222 218 217 215 217 220 218 216 217 218 218 220 221 220 219 217 215 217 217 217 219 226 229 238 253 273 293 305 315 330
291 274 278 287 313 281 272 277 280 276 256 247 244 238 228 226 230 224 225 223 220 219 217 217 218 218 216 216 217 217 221 222 222 221 219 218 219 219 218 221 229 235 240 255 271 283 302 320 336
263 286 293 296 246 286 300 290 293 299 259 243 244 237 233 233 231 224 218 222 222 221 221 220 221 220 219 221 221 223 225 226 225 224 222 221 221 222 221 221 228 238 247 259 269 283 298 306 326
257 275 306 301 318 262 311 278 356 40 359 280 257 249 243 233 226 220 218 220 222 222 222 222 222 222 223 223 223 224 227 225 223 222 221 221 222 223 223 224 229 237 244 253 263 269 271 279 289
278 32 276 301 323 322 5 309 45 20 62 37 27 19 272 245 237 225 219 219 223 224 223 224 225 226 226 224 225 225 227 227 224 224 224 225 225 223 224 225 229 237 245 252 259 266 268 272 281
342 284 283 287 290 307 126 265 49 28 11 5 5 4 358 347 250 237 224 224 226 225 226 226 225 226 228 226 227 227 227 229 229 226 225 224 223 223 222 223 228 235 243 249 259 265 266 264 266
97 262 247 247 238 236 37 319 69 21 353 27 45 43 40 21 348 292 230 225 224 227 227 227 226 227 227 227 226 228 228 228 229 225 224 223 223 222 221 221 224 233 240 245 252 256 257 255 255
233 281 279 228 209 17 57 290 32 45 63 52 40 42 41 31 22 7 271 227 220 221 222 224 224 226 227 228 226 227 229 230 231 228 227 225 225 222 220 222 226 233 240 243 247 250 249 248 244
172 290 304 296 327 325 121 240 111 166 126 62 49 38 25 20 17 16 7 249 224 222 223 224 225 226 227 229 228 229 230 230 230 227 227 226 227 226 224 225 228 231 238 242 244 244 241 240 239
134 212 13 277 60 264 305 181 158 217 226 222 29 14 14 10 6 7 9 3 245 224 223 226 227 228 229 232 232 231 231 230 229 227 226 227 226 226 226 227 230 230 235 238 240 237 235 235 234
287 123 202 189 272 272 207 259 150 207 224 342 5 2 0 359 358 355 356 360 358 253 240 234 231 231 233 235 235 235 234 233 232 230 228 227 226 226 227 228 232 232 232 235 236 233 232 232 232
158 209 211 304 267 287 304 177 162 185 4 352 352 358 354 350 349 350 350 352 349 334 273 249 243 239 236 235 236 235 235 234 234 234 232 230 229 228 229 230 232 233 233 234 234 231 231 231 232
276 268 241 253 175 241 310 269 160 194 36 342 344 344 346 347 347 353 352 349 347 329 302 275 258 244 242 241 240 238 236 235 235 235 235 234 232 231 231 233 233 234 233 233 233 231 230 231 232
Height
1539 1539 1538 1538 1538 1531 1530 1532 1533 1534 1537 1541 1542 1542 1539 1541 1538 1541 1545 1546 1549 1551 1553 1555 1555 1558 1559 1561 1561 1562 1563 1562 1562 1562 1562 1561 1561 1559 1559 1558 1558 1556 1554 1553 1553 1551 1552 1550 1549
1538 1538 1538 1537 1534 1533 1526 1529 1532 1534 1539 1542 1543 1543 1542 1539 1544 1544 1546 1546 1549 1552 1554 1555 1555 1558 1559 1561 1562 1563 1563 1563 1563 1562 1563 1562 1562 1562 1560 1559 1559 1558 1556 1553 1553 1554 1554 1552 1551
1538 1538 1538 1532 1529 1531 1528 1529 1531 1538 1540 1542 1542 1543 1543 1543 1544 1545 1545 1546 1549 1551 1553 1555 1556 1557 1559 1560 1562 1562 1563 1563 1563 1563 1563 1563 1562 1562 1560 1559 1558 1557 1556 1555 1555 1555 1554 1553 1552
1538 1539 1538 1531 1529 1527 1527 1529 1535 1538 1541 1541 1542 1540 1543 1542 1544 1545 1544 1547 1550 1552 1554 1554 1556 1557 1559 1559 1562 1562 1563 1563 1563 1563 1562 1561 1562 1562 1561 1560 1559 1558 1557 1556 1556 1555 1554 1554 1553
1537 1536 1531 1531 1527 1528 1529 1533 1535 1535 1537 1539 1541 1538 1542 1541 1541 1542 1544 1547 1550 1552 1554 1555 1556 1557 1559 1560 1561 1563 1562 1563 1562 1562 1562 1562 1562 1561 1561 1561 1560 1560 1559 1558 1558 1557 1556 1555 1554
1536 1535 1531 1530 1527 1528 1530 1533 1535 1535 1537 1539 1540 1539 1541 1540 1541 1543 1544 1547 1550 1551 1553 1556 1555 1556 1558 1560 1561 1562 1562 1562 1562 1563 1563 1563 1562 1562 1562 1562 1561 1561 1560 1560 1559 1559 1558 1557 1556
1534 1532 1528 1528 1527 1527 1527 1533 1533 1533 1535 1536 1537 1536 1540 1540 1541 1542 1544 1548 1549 1551 1552 1555 1557 1557 1557 1559 1560 1561 1562 1561 1562 1562 1563 1563 1563 1563 1562 1562 1562 1561 1561 1561 1560 1560 1559 1557 1556
1536 1532 1532 1528 1527 1526 1529 1532 1533 1533 1534 1535 1537 1534 1536 1539 1539 1541 1544 1547 1549 1550 1551 1554 1557 1558 1559 1559 1559 1560 1561 1561 1562 1562 1563 1563 1563 1563 1563 1562 1562 1561 1561 1560 1560 1559 1558 1558 1557
1535 1532 1530 1528 1529 1524 1530 1531 1532 1533 1534 1534 1535 1536 1535 1536 1537 1540 1543 1546 1547 1548 1550 1553 1555 1557 1559 1560 1559 1559 1560 1561 1561 1562 1562 1563 1564 1564 1563 1563 1562 1561 1562 1561 1561 1560 1559 1558 1558
1533 1531 1528 1527 1526 1525 1528 1529 1530 1532 1532 1533 1533 1532 1533 1534 1536 1538 1539 1542 1544 1546 1548 1551 1553 1555 1556 1557 1558 1560 1560 1561 1562 1562 1562 1563 1563 1564 1563 1563 1563 1562 1562 1562 1561 1560 1560 1559 1558
1532 1529 1527 1527 1528 1528 1528 1529 1529 1529 1529 1527 1528 1530 1530 1532 1534 1536 1538 1540 1542 1545 1546 1548 1550 1552 1553 1555 1557 1557 1558 1559 1560 1561 1561 1562 1563 1563 1563 1563 1563 1563 1562 1561 1561 1560 1560 1559 1558
1532 1529 1530 1528 1528 1528 1527 1527 1526 1526 1524 1525 1526 1528 1527 1529 1530 1532 1535 1538 1540 1541 1543 1546 1548 1549 1551 1553 1554 1556 1557 1558 1559 1559 1560 1561 1562 1562 1562 1562 1562 1562 1562 1561 1561 1560 1560 1559 1559
1530 1528 1530 1529 1528 1527 1527 1524 1523 1522 1522 1523 1523 1524 1524 1526 1528 1530 1533 1536 1538 1539 1540 1542 1545 1547 1549 1551 1553 1555 1556 1557 1557 1558 1559 1559 1560 1561 1561 1561 1561 1561 1561 1561 1561 1560 1560 1559 1559
1530 1529 1528 1527 1526 1525 1524 1521 1523 1516 1518 1519 1518 1519 1521 1522 1523 1526 1528 1531 1532 1535 1537 1540 1542 1545 1547 1549 1551 1553 1554 1555 1555 1556 1557 1558 1559 1560 1560 1560 1560 1560 1560 1560 1560 1559 1559 1559 1558
1530 1527 1522 1521 1522 1523 1524 1517 1512 1510 1513 1512 1513 1515 1517 1517 1520 1521 1523 1526 1529 1532 1535 1536 1539 1542 1544 1546 1548 1550 1551 1552 1554 1555 1556 1557 1557 1558 1559 1559 1559 1559 1559 1559 1559 1559 1559 1558 1557
1527 1526 1522 1519 1521 1521 1523 1508 1502 1505 1507 1506 1507 1509 1511 1512 1513 1516 1519 1522 1525 1529 1531 1533 1535 1538 1542 1544 1545 1547 1549 1550 1552 1552 1554 1555 1555 1556 1557 1557 1558 1558 1559 1558 1558 1558 1558 1557 1557
1524 1519 1521 1517 1519 1519 1519 1505 1498 1502 1503 1502 1502 1503 1505 1507 1509 1511 1514 1518 1521 1524 1527 1529 1532 1535 1538 1541 1542 1544 1546 1547 1549 1550 1551 1552 1553 1554 1555 1556 1557 1557 1557 1557 1557 1557 1557 1556 1556
1523 1522 1519 1520 1515 1517 1513 1502 1495 1497 1499 1496 1496 1498 1499 1501 1503 1506 1509 1513 1516 1520 1523 1526 1528 1532 1535 1537 1539 1540 1542 1543 1545 1547 1548 1549 1551 1552 1553 1554 1555 1556 1556 1556 1556 1555 1556 1555 1554
1526 1525 1522 1515 1515 1518 1505 1495 1485 1488 1488 1489 1489 1491 1493 1495 1499 1502 1503 1507 1511 1514 1517 1520 1523 1526 1529 1531 1533 1535 1537 1540 1541 1543 1545 1547 1548 1549 1550 1552 1553 1553 1554 1554 1554 1554 1554 1553 1552
1527 1524 1516 1512 1517 1517 1499 1489 1479 1476 1476 1479 1482 1483 1486 1490 1492 1495 1497 1500 1503 1507 1511 1515 1518 1521 1524 1526 1529 1532 1535 1537 1538 1540 1541 1543 1545 1546 1547 1549 1550 1551 1551 1552 1552 1552 1551 1551 1550
1522 1523 1518 1522 1516 1508 1506 1474 1473 1476 1477 1479 1479 1480 1482 1483 1486 1488 1489 1492 1497 1500 1504 1508 1512 1516 1519 1523 1526 1528 1530 1531 1533 1535 1537 1539 1541 1543 1544 1546 1547 1548 1548 1549 1549 1549 1550 1549 1549
1524 1523 1524 1522 1518 1510 1511 1493 1472 1476 1472 1474 1476 1478 1478 1479 1480 1484 1486 1486 1489 1493 1499 1503 1507 1510 1514 1517 1519 1521 1524 1527 1530 1532 1535 1536 1538 1539 1541 1542 1543 1544 1545 1546 1546 1546 1546 1546 1546
1519 1524 1523 1522 1520 1521 1510 1509 1473 1475 1476 1478 1477 1477 1476 1477 1477 1478 1480 1482 1485 1490 1493 1497 1501 1504 1507 1510 1513 1516 1519 1523 1526 1528 1530 1531 1533 1535 1536 1538 1539 1540 1541 1542 1542 1542 1543 1543 1543
1526 1523 1522 1523 1519 1513 1513 1513 1485 1488 1492 1488 1483 1480 1478 1477 1475 1472 1473 1476 1478 1483 1486 1490 1493 1497 1500 1503 1506 1509 1513 1517 1519 1522 1524 1526 1528 1530 1531 1533 1535 1536 1538 1538 1539 1539 1539 1540 1540
1523 1520 1513 1509 1508 1505 1518 1513 1497 1495 1494 1492 1488 1485 1483 1481 1476 1470 1467 1468 1471 1474 1478 1481 1485 1488 1492 1496 1499 1502 1506 1510 1513 1517 1519 1521 1523 1524 1526 1528 1530 1532 1533 1534 1535 1535 1536 1536 1537
1521 1520 1516 1523 1511 1509 1521 1506 1500 1497 1495 1493 1490 1488 1486 1481 1477 1472 1466 1464 1465 1469 1472 1475 1478 1482 1485 1488 1492 1496 1500 1503 1506 1510 1512 1514 1516 1519 1522 1523 1525 1527 1528 1529 1530 1531 1532 1533 1533
1523 1523 1524 1522 1530 1522 1502 1497 1494 1494 1491 1491 1489 1486 1484 1482 1479 1475 1469 1464 1463 1465 1467 1470 1473 1477 1479 1482 1486 1489 1493 1496 1498 1502 1505 1507 1510 1513 1515 1517 1519 1521 1523 1524 1525 1526 1527 1527 1528
1523 1523 1522 1520 1525 1517 1497 1499 1483 1489 1484 1484 1484 1485 1485 1483 1479 1475 1471 1467 1465 1465 1466 1467 1469 1471 1474 1477 1480 1482 1485 1489 1492 1495 1497 1500 1503 1506 1508 1510 1513 1515 1516 1518 1519 1520 1521 1522 1523
1524 1521 1524 1521 1519 1513 1508 1485 1477 1481 1487 1488 1489 1488 1485 1483 1479 1475 1471 1468 1465 1463 1463 1464 1465 1466 1468 1469 1472 1475 1477 1481 1484 1487 1490 1492 1496 1499 1501 1503 1506 1508 1510 1512 1513 1514 1515 1516 1517
1519 1515 1514 1516 1520 1521 1521 1499 1482 1484 1488 1488 1487 1487 1487 1485 1480 1476 1472 1468 1465 1461 1459 1458 1459 1460 1462 1464 1466 1467 1471 1473 1475 1478 1482 1485 1488 1491 1494 1496 1499 1501 1503 1505 1506 1508 1509 1510 1511